| time (UTC) | temp C | wind direction | speed KPH | gust KPH | rain 1hr cm | rain 24hr cm | rain mn cm | humidity % | barometer mb |
| 20260507210043 | 13 | 275 | 11.3 | 25.7 | 0.00 | 0.00 | 0.00 | 29 | 1009.2 |
| 20260507204542 | 12 | 252 | 16.1 | 29.0 | 0.00 | 0.00 | 0.00 | 28 | 1009.3 |
| 20260507203048 | 13 | 240 | 8.0 | 25.7 | 0.00 | 0.00 | 0.00 | 32 | 1009.6 |
| 20260507201540 | 12 | 274 | 8.0 | 37.0 | 0.00 | 0.00 | 0.00 | 30 | 1009.9 |
| 20260507200046 | 12 | 224 | 11.3 | 29.0 | 0.00 | 0.00 | 0.00 | 31 | 1010.0 |
| 20260507194534 | 11 | 321 | 11.3 | 33.8 | 0.00 | 0.00 | 0.00 | 30 | 1010.3 |
| 20260507193035 | 11 | 259 | 11.3 | 19.3 | 0.00 | 0.00 | 0.00 | 30 | 1010.3 |
| 20260507191532 | 11 | 226 | 11.3 | 30.6 | 0.00 | 0.00 | 0.00 | 31 | 1010.5 |
| 20260507190033 | 12 | 235 | 11.3 | 19.3 | 0.00 | 0.00 | 0.00 | 30 | 1010.5 |
| 20260507184530 | 11 | 315 | 11.3 | 24.1 | 0.00 | 0.00 | 0.00 | 33 | 1010.5 |
| 20260507183036 | 11 | 222 | 14.5 | 27.4 | 0.00 | 0.00 | 0.00 | 31 | 1010.8 |
| 20260507181526 | 11 | 282 | 11.3 | 29.0 | 0.00 | 0.00 | 0.00 | 34 | 1011.0 |
| 20260507180035 | 10 | 271 | 9.7 | 19.3 | 0.00 | 0.00 | 0.00 | 34 | 1011.1 |
| 20260507174528 | 10 | 297 | 8.0 | 24.1 | 0.00 | 0.00 | 0.00 | 37 | 1011.3 |
| 20260507173019 | 10 | 333 | 11.3 | 22.5 | 0.00 | 0.00 | 0.00 | 35 | 1011.6 |
| 20260507171517 | 10 | 328 | 9.7 | 25.7 | 0.00 | 0.00 | 0.00 | 34 | 1011.7 |
| 20260507170018 | 10 | 314 | 6.4 | 25.7 | 0.00 | 0.00 | 0.00 | 34 | 1011.7 |
| 20260507164514 | 9 | 165 | 14.5 | 25.7 | 0.00 | 0.00 | 0.00 | 33 | 1011.9 |
| 20260507163011 | 10 | 262 | 11.3 | 19.3 | 0.00 | 0.00 | 0.00 | 38 | 1012.0 |
| 20260507161508 | 9 | 317 | 1.6 | 20.9 | 0.00 | 0.00 | 0.00 | 36 | 1012.2 |
| 20260507160005 | 8 | 191 | 8.0 | 17.7 | 0.00 | 0.00 | 0.00 | 39 | 1012.3 |
| 20260507154502 | 8 | 178 | 0.0 | 14.5 | 0.00 | 0.00 | 0.00 | 41 | 1012.3 |
| 20260507153059 | 8 | 259 | 6.4 | 17.7 | 0.00 | 0.00 | 0.00 | 39 | 1012.4 |
| 20260507151556 | 8 | 42 | 4.8 | 14.5 | 0.00 | 0.00 | 0.00 | 42 | 1012.3 |
| 20260507150052 | 7 | 304 | 1.6 | 14.5 | 0.00 | 0.00 | 0.00 | 44 | 1012.4 |
| 20260507144547 | 7 | 284 | 3.2 | 12.9 | 0.00 | 0.00 | 0.00 | 43 | 1012.5 |
| 20260507143046 | 7 | 313 | 4.8 | 16.1 | 0.00 | 0.00 | 0.00 | 45 | 1012.7 |
| 20260507141540 | 6 | 282 | 3.2 | 11.3 | 0.00 | 0.00 | 0.00 | 45 | 1012.7 |
| 20260507140034 | 6 | 296 | 4.8 | 12.9 | 0.00 | 0.00 | 0.00 | 48 | 1012.8 |
| 20260507134539 | 6 | 241 | 3.2 | 12.9 | 0.00 | 0.00 | 0.00 | 51 | 1012.9 |
| 20260507133027 | 5 | 271 | 4.8 | 11.3 | 0.00 | 0.00 | 0.00 | 54 | 1012.9 |
| 20260507131531 | 5 | 306 | 3.2 | 17.7 | 0.00 | 0.00 | 0.00 | 57 | 1012.9 |
| 20260507130019 | 4 | 264 | 4.8 | 9.7 | 0.00 | 0.00 | 0.00 | 60 | 1012.9 |
| 20260507124515 | 3 | 215 | 4.8 | 11.3 | 0.00 | 0.00 | 0.00 | 63 | 1013.0 |
| 20260507123018 | 3 | 5 | 1.6 | 6.4 | 0.00 | 0.00 | 0.00 | 67 | 1013.0 |
| 20260507121506 | 2 | 174 | 3.2 | 6.4 | 0.00 | 0.00 | 0.00 | 69 | 1013.0 |
| 20260507120006 | 2 | 225 | 1.6 | 4.8 | 0.00 | 0.00 | 0.00 | 71 | 1013.0 |
| 20260507114503 | 1 | 276 | 1.6 | 4.8 | 0.00 | 0.00 | 0.00 | 70 | 1013.0 |
| 20260507113100 | 1 | 276 | 1.6 | 6.4 | 0.00 | 0.00 | 0.00 | 70 | 1012.9 |
| 20260507111555 | 1 | 269 | 1.6 | 6.4 | 0.00 | 0.00 | 0.00 | 71 | 1012.9 |
| 20260507110107 | 1 | 273 | 1.6 | 6.4 | 0.00 | 0.00 | 0.00 | 71 | 1012.9 |
| 20260507104554 | 1 | 221 | 3.2 | 6.4 | 0.00 | 0.00 | 0.00 | 72 | 1013.0 |
| 20260507103056 | 1 | 221 | 1.6 | 6.4 | 0.00 | 0.00 | 0.00 | 70 | 1013.1 |
| 20260507101551 | 1 | 221 | 3.2 | 4.8 | 0.00 | 0.00 | 0.00 | 69 | 1013.1 |
| 20260507100049 | 1 | 221 | 1.6 | 4.8 | 0.00 | 0.00 | 0.00 | 68 | 1013.1 |
| 20260507094548 | 1 | 221 | 1.6 | 4.8 | 0.00 | 0.00 | 0.00 | 67 | 1013.1 |
| 20260507093052 | 1 | 221 | 1.6 | 4.8 | 0.00 | 0.00 | 0.00 | 66 | 1013.1 |
| 20260507091607 | 2 | 221 | 3.2 | 6.4 | 0.00 | 0.00 | 0.00 | 66 | 1013.0 |
| 20260507090047 | 2 | 236 | 3.2 | 6.4 | 0.00 | 0.00 | 0.00 | 67 | 1013.1 |
| 20260507084543 | 2 | 236 | 1.6 | 6.4 | 0.00 | 0.00 | 0.00 | 67 | 1013.1 |
| 20260507083041 | 2 | 236 | 3.2 | 6.4 | 0.00 | 0.00 | 0.00 | 67 | 1013.2 |
| 20260507081539 | 1 | 236 | 1.6 | 6.4 | 0.00 | 0.00 | 0.00 | 67 | 1013.1 |
| 20260507080038 | 2 | 236 | 1.6 | 4.8 | 0.00 | 0.00 | 0.00 | 66 | 1013.0 |
| 20260507074543 | 2 | 236 | 1.6 | 3.2 | 0.00 | 0.00 | 0.00 | 64 | 1012.9 |
| 20260507073032 | 2 | 236 | 1.6 | 4.8 | 0.00 | 0.00 | 0.00 | 62 | 1013.0 |
| 20260507071528 | 3 | 236 | 1.6 | 3.2 | 0.00 | 0.00 | 0.00 | 61 | 1013.4 |
| 20260507070026 | 3 | 236 | 0.0 | 3.2 | 0.00 | 0.00 | 0.00 | 59 | 1013.4 |
| 20260507064524 | 3 | 236 | 0.0 | 4.8 | 0.00 | 0.00 | 0.00 | 59 | 1013.4 |
| 20260507063025 | 3 | 236 | 1.6 | 4.8 | 0.00 | 0.00 | 0.00 | 59 | 1013.6 |
| 20260507061520 | 3 | 236 | 3.2 | 6.4 | 0.00 | 0.00 | 0.00 | 59 | 1013.7 |
| 20260507060018 | 4 | 240 | 3.2 | 6.4 | 0.00 | 0.00 | 0.00 | 58 | 1013.9 |
| 20260507054517 | 4 | 271 | 1.6 | 4.8 | 0.00 | 0.00 | 0.00 | 57 | 1013.9 |
| 20260507053016 | 4 | 275 | 3.2 | 6.4 | 0.00 | 0.00 | 0.00 | 56 | 1014.1 |
| 20260507051513 | 4 | 281 | 0.0 | 6.4 | 0.00 | 0.00 | 0.00 | 56 | 1014.1 |
| 20260507050011 | 4 | 269 | 1.6 | 9.7 | 0.00 | 0.00 | 0.00 | 56 | 1014.3 |
| 20260507044511 | 4 | 282 | 3.2 | 9.7 | 0.00 | 0.00 | 0.00 | 55 | 1014.3 |
| 20260507043011 | 4 | 268 | 1.6 | 6.4 | 0.00 | 0.00 | 0.00 | 55 | 1014.4 |
| 20260507041512 | 4 | 258 | 1.6 | 9.7 | 0.00 | 0.00 | 0.00 | 54 | 1014.4 |
| 20260507040009 | 5 | 261 | 1.6 | 9.7 | 0.00 | 0.00 | 0.00 | 54 | 1014.6 |
| 20260507034510 | 5 | 269 | 3.2 | 9.7 | 0.00 | 0.00 | 0.00 | 54 | 1014.7 |
| 20260507033009 | 5 | 270 | 1.6 | 12.9 | 0.00 | 0.00 | 0.00 | 53 | 1014.7 |
| 20260507031511 | 5 | 301 | 1.6 | 4.8 | 0.00 | 0.00 | 0.00 | 53 | 1014.7 |
| 20260507030008 | 5 | 269 | 3.2 | 9.7 | 0.00 | 0.00 | 0.00 | 52 | 1014.8 |
| 20260507024507 | 5 | 271 | 4.8 | 9.7 | 0.00 | 0.00 | 0.00 | 52 | 1014.8 |
| 20260507023007 | 5 | 269 | 1.6 | 11.3 | 0.00 | 0.00 | 0.00 | 51 | 1014.8 |
| 20260507021506 | 5 | 263 | 4.8 | 9.7 | 0.00 | 0.00 | 0.00 | 50 | 1014.8 |
| 20260507020006 | 5 | 257 | 1.6 | 6.4 | 0.00 | 0.00 | 0.00 | 50 | 1014.7 |
| 20260507014509 | 5 | 284 | 3.2 | 8.0 | 0.00 | 0.00 | 0.00 | 49 | 1014.6 |
| 20260507013005 | 5 | 297 | 3.2 | 11.3 | 0.00 | 0.00 | 0.00 | 49 | 1014.5 |
| 20260507011505 | 5 | 290 | 3.2 | 11.3 | 0.00 | 0.00 | 0.00 | 49 | 1014.6 |
| 20260507010010 | 5 | 246 | 1.6 | 12.9 | 0.00 | 0.00 | 0.00 | 49 | 1014.7 |
| 20260507004504 | 5 | 303 | 4.8 | 12.9 | 0.00 | 0.00 | 0.00 | 48 | 1014.7 |
| 20260507003008 | 6 | 261 | 6.4 | 16.1 | 0.00 | 0.00 | 0.00 | 48 | 1014.8 |
| 20260507001503 | 6 | 329 | 4.8 | 19.3 | 0.00 | 0.00 | 0.00 | 48 | 1014.9 |
| 20260507000003 | 6 | 257 | 9.7 | 17.7 | 0.00 | 0.00 | 0.00 | 48 | 1014.9 |
| 20260506234502 | 6 | 294 | 8.0 | 20.9 | 0.00 | 0.00 | 0.00 | 47 | 1015.0 |
| 20260506233003 | 6 | 273 | 9.7 | 22.5 | 0.00 | 0.00 | 0.00 | 47 | 1015.0 |
| 20260506231505 | 6 | 280 | 8.0 | 19.3 | 0.00 | 0.00 | 0.00 | 47 | 1015.0 |
| 20260506230001 | 6 | 248 | 6.4 | 16.1 | 0.00 | 0.00 | 0.00 | 49 | 1015.2 |
| 20260506224501 | 6 | 278 | 6.4 | 17.7 | 0.00 | 0.00 | 0.00 | 48 | 1015.2 |
| 20260506223000 | 6 | 255 | 8.0 | 20.9 | 0.00 | 0.00 | 0.00 | 47 | 1015.2 |
| 20260506221608 | 6 | 211 | 9.7 | 19.3 | 0.00 | 0.00 | 0.00 | 49 | 1015.3 |
| 20260506220058 | 6 | 327 | 9.7 | 19.3 | 0.00 | 0.00 | 0.00 | 49 | 1015.4 |
| 20260506214604 | 5 | 306 | 9.7 | 20.9 | 0.00 | 0.00 | 0.00 | 49 | 1015.5 |
| 20260506213057 | 5 | 289 | 9.7 | 20.9 | 0.00 | 0.00 | 0.00 | 49 | 1015.6 |
| 20260506211556 | 5 | 307 | 9.7 | 24.1 | 0.00 | 0.00 | 0.00 | 50 | 1015.7 |